STARLINK-1967 (47568 NORAD) Tracking and Keplerian Element Data

This shows tracking and keplerian element data for the satellite.

Feedback or suggestion? Click here.




ElementValue
Catalog47568
NameSTARLINK-1967
Epoch Orbit1060
Epoch Day99.91667824
Epoch Year2021
RAAN178.6595
Inclination53.0552
Eccentricity0.0001293
Argument of Perigee70.4819
Mean Anonmoly200.4735
Mean Motion15.06411816
Decay Rate-0.0003081
L11 47568U 21009W 21099.91667824 -.00030810 00000-0 -20578-2 0 9994
L22 47568 53.0552 178.6595 0001293 70.4819 200.4735 15.06411816 10608

Live tracking and technical data element details for STARLINK-1967 (NORAD 47568). STARLINK-1967 can be tracked NOW for your location showing map with azimuth and elevation plus other details from your city location.

Track the satellite on the map from your city or location and see movement details for azimuth, elevation, latitude, longitude, range, height, and movement on the map or in text.







IsCatalogInMostPopularTable: catalog: 47568, numindb: 14
Update: records affected: 1



GetName: 47568 STARLINK-1967

Hit Count: updated at: Sat, 10 Apr 2021 19:15:28 GMT